Metcalfe, MS

7:26 AM CST on February 09, 2016 (GMT -0600)
Mid Delta Regional

Weather History for KGLH - July, 2013

Change the Weather History Date:

Monday, July 15, 2013

  Actual Average Record
Temperature  
Mean Temperature 80 °F 82 °F  
Max Temperature 91 °F 92 °F 101 °F (1939)
Min Temperature 69 °F 72 °F 55 °F (1926)
Degree Days  
Heating Degree Days 0 0  
Month to date heating degree days 0 0  
Since 1 June heating degree days 0 0  
Since 1 July heating degree days 0 0  
Cooling Degree Days 15 17  
Month to date cooling degree days 222 253  
Year to date cooling degree days 964 995  
Since 1 June cooling degree days 681 673  
Growing Degree Days 34 (Base 50)    
Moisture  
Dew Point 73 °F    
Average Humidity 70    
Maximum Humidity 85    
Minimum Humidity 55    
Precipitation  
Precipitation T in 0.12 in 3.23 in (1950)
Month to date precipitation 1.12 2.12  
Year to date precipitation 27.33 30.42  
Sea Level Pressure  
Sea Level Pressure 30.12 in    
Wind  
Wind Speed 5 mph (SE)    
Max Wind Speed 16 mph    
Max Gust Speed 20 mph    
Visibility 10 miles    
Events Thunderstorm    
T = Trace of Precipitation, MM = Missing Value Source: NWS Daily Summary

Daily Weather History Graph

Daily Weather History Graph

Search for Another Location

Airport or City:

Trip Planner

Search our weather history database for the weather conditions in past years. The results will help you decide how hot, cold, wet, or windy it might be!

Date:

Astronomy

Jul. 15, 2013 Rise Set
Actual Time 6:05 AM CDT 8:14 PM CDT
Civil Twilight 5:36 AM CDT 8:42 PM CDT
Nautical Twilight 5:02 AM CDT 9:17 PM CDT
Astronomical Twilight 4:25 AM CDT 9:54 PM CDT
Moon 1:00 PM CDT (7/15) No Moon Set
Length of Visible Light 15h 05m
Length of Day
14h 09m
Waxing Crescent, 45% of the Moon is Illuminated
Jul 15
Waxing Crescent
Jul 15
First Quarter
Jul 22
Full
Jul 29
Last Quarter
Aug 6
New

Hourly Weather History & Observations

Time (CDT) Temp. Heat Index Dew Point Humidity Pressure Visibility Wind Dir Wind Speed Gust Speed Precip Events Conditions
10:53 AM 82.0 °F 87.9 °F 73.9 °F 76% 30.15 in 10.0 mi ESE 5.8 mph - N/A   Mostly Cloudy
11:32 AM 82.4 °F 89.5 °F 75.2 °F 79% 30.13 in 10.0 mi South 5.8 mph - N/A   Scattered Clouds
11:53 AM 84.9 °F 92.1 °F 73.9 °F 69% 30.15 in 10.0 mi SSE 5.8 mph - N/A   Partly Cloudy
12:53 PM 87.1 °F 94.5 °F 73.0 °F 63% 30.14 in 10.0 mi ESE 5.8 mph - N/A   Partly Cloudy
1:53 PM 88.0 °F 94.7 °F 72.0 °F 59% 30.12 in 10.0 mi SSE 8.1 mph - N/A   Partly Cloudy
2:53 PM 89.1 °F 95.0 °F 71.1 °F 55% 30.10 in 10.0 mi SSE 9.2 mph - N/A   Clear
3:53 PM 89.1 °F 95.0 °F 71.1 °F 55% 30.10 in 10.0 mi South 5.8 mph - N/A   Clear
4:53 PM 88.0 °F 92.9 °F 70.0 °F 55% 30.09 in 10.0 mi South 3.5 mph - N/A   Mostly Cloudy
5:53 PM 89.1 °F 95.0 °F 71.1 °F 55% 30.08 in 10.0 mi SE 3.5 mph - N/A   Clear
6:31 PM 89.6 °F 96.2 °F 71.6 °F 55% 30.07 in 10.0 mi SE 5.8 mph - N/A Thunderstorm Clear
6:48 PM 89.6 °F 96.2 °F 71.6 °F 55% 30.07 in 10.0 mi South 4.6 mph - N/A   Partly Cloudy
6:53 PM 89.1 °F 96.0 °F 72.0 °F 57% 30.09 in 10.0 mi South 6.9 mph - N/A   Scattered Clouds
7:46 PM 82.4 °F 88.2 °F 73.4 °F 74% 30.09 in 10.0 mi ESE 4.6 mph - 0.00 in Thunderstorm Partly Cloudy
7:53 PM 82.0 °F 87.9 °F 73.9 °F 76% 30.11 in 10.0 mi East 4.6 mph - 0.00 in Thunderstorm Partly Cloudy
8:02 PM 82.4 °F 89.5 °F 75.2 °F 79% 30.10 in 10.0 mi Calm Calm - N/A   Clear
8:53 PM 80.1 °F 84.5 °F 73.9 °F 81% 30.13 in 10.0 mi ESE 4.6 mph - N/A   Clear
9:53 PM 81.0 °F 85.2 °F 72.0 °F 74% 30.15 in 10.0 mi East 4.6 mph - N/A   Clear
10:53 PM 80.1 °F 84.2 °F 73.0 °F 79% 30.16 in 10.0 mi ESE 4.6 mph - N/A   Clear
11:53 PM 78.1 °F - 73.0 °F 84% 30.16 in 10.0 mi ESE 4.6 mph - N/A   Clear